TimeMST,TemperatureF,Dew PointF,Humidity,Sea Level PressureIn,VisibilityMPH,Wind Direction,Wind SpeedMPH,Gust SpeedMPH,PrecipitationIn,Events,Conditions,WindDirDegrees,DateUTC
12:15 AM,5.0,1.4,85,30.45,10.0,South,4.6,-,N/A,,Overcast,190,2013-01-04 07:15:00
12:35 AM,3.2,1.4,92,30.45,10.0,South,4.6,-,N/A,,Overcast,180,2013-01-04 07:35:00
12:55 AM,3.2,1.4,92,30.44,10.0,SSW,4.6,-,N/A,,Overcast,210,2013-01-04 07:55:00
1:15 AM,3.2,1.4,92,30.44,10.0,SW,4.6,-,N/A,,Overcast,230,2013-01-04 08:15:00
1:35 AM,3.2,-0.4,85,30.44,10.0,SW,5.8,-,N/A,,Overcast,230,2013-01-04 08:35:00
1:55 AM,3.2,1.4,92,30.44,10.0,WSW,6.9,-,N/A,,Overcast,250,2013-01-04 08:55:00
2:15 AM,3.2,-0.4,85,30.44,10.0,WSW,6.9,-,N/A,,Overcast,250,2013-01-04 09:15:00
2:35 AM,1.4,-0.4,92,30.44,10.0,WSW,5.8,-,N/A,,Overcast,250,2013-01-04 09:35:00
2:55 AM,1.4,-0.4,92,30.45,10.0,WSW,4.6,-,N/A,,Overcast,240,2013-01-04 09:55:00
3:15 AM,1.4,1.4,100,30.45,10.0,WSW,4.6,-,N/A,,Overcast,240,2013-01-04 10:15:00
3:35 AM,1.4,-0.4,92,30.45,10.0,WSW,4.6,-,N/A,,Overcast,250,2013-01-04 10:35:00
3:55 AM,1.4,-0.4,92,30.45,9.0,WSW,3.5,-,N/A,,Overcast,240,2013-01-04 10:55:00
4:35 AM,1.4,-0.4,92,30.45,2.0,Calm,Calm,-,N/A,,Overcast,0,2013-01-04 11:35:00
4:55 AM,1.4,1.4,100,30.44,1.8,Calm,Calm,-,N/A,,Overcast,0,2013-01-04 11:55:00
5:15 AM,1.4,-2.2,85,30.45,1.5,Calm,Calm,-,N/A,,Overcast,0,2013-01-04 12:15:00
5:35 AM,1.4,-0.4,92,30.45,1.8,Calm,Calm,-,N/A,,Overcast,0,2013-01-04 12:35:00
5:55 AM,1.4,-2.2,85,30.45,3.0,WSW,6.9,-,N/A,,Overcast,250,2013-01-04 12:55:00
6:15 AM,-0.4,-4.0,85,30.45,2.5,WSW,6.9,-,N/A,,Overcast,250,2013-01-04 13:15:00
6:35 AM,-0.4,-2.2,92,30.45,6.0,WSW,4.6,-,N/A,,Overcast,250,2013-01-04 13:35:00
6:55 AM,-0.4,-0.4,100,30.45,4.0,West,4.6,-,N/A,,Overcast,280,2013-01-04 13:55:00
7:15 AM,-0.4,-5.8,78,30.45,2.5,West,3.5,-,N/A,,Overcast,280,2013-01-04 14:15:00
7:35 AM,1.4,-0.4,92,30.46,2.5,West,4.6,-,N/A,,Overcast,280,2013-01-04 14:35:00
7:55 AM,1.4,-2.2,85,30.46,1.8,West,3.5,-,N/A,,Overcast,270,2013-01-04 14:55:00
8:15 AM,1.4,-2.2,85,30.46,10.0,West,3.5,-,N/A,,Overcast,280,2013-01-04 15:15:00
8:35 AM,-0.4,-2.2,92,30.46,10.0,West,3.5,-,N/A,,Overcast,280,2013-01-04 15:35:00
8:55 AM,-0.4,-4.0,85,30.46,9.0,WNW,3.5,-,N/A,,Overcast,290,2013-01-04 15:55:00
9:15 AM,-0.4,-4.0,85,30.47,7.0,WNW,3.5,-,N/A,,Overcast,290,2013-01-04 16:15:00
9:35 AM,-0.4,-2.2,92,30.48,2.0,WNW,3.5,-,N/A,,Overcast,290,2013-01-04 16:35:00
9:55 AM,-0.4,-2.2,92,30.48,5.0,Calm,Calm,-,N/A,,Overcast,0,2013-01-04 16:55:00
10:15 AM,-0.4,-5.8,78,30.48,4.0,Calm,Calm,-,N/A,,Overcast,0,2013-01-04 17:15:00
10:35 AM,1.4,-0.4,92,30.48,4.0,Calm,Calm,-,N/A,,Overcast,0,2013-01-04 17:35:00
10:55 AM,1.4,-2.2,85,30.48,5.0,Calm,Calm,-,N/A,,Overcast,0,2013-01-04 17:55:00
11:35 AM,1.4,-2.2,85,30.47,0.5,Calm,Calm,-,N/A,,Overcast,0,2013-01-04 18:35:00
11:55 AM,1.4,-0.4,92,30.46,0.5,Calm,Calm,-,N/A,,Overcast,0,2013-01-04 18:55:00
12:15 PM,1.4,-2.2,85,30.46,1.5,Calm,Calm,-,N/A,,Overcast,0,2013-01-04 19:15:00
12:35 PM,1.4,-0.4,92,30.44,5.0,Calm,Calm,-,N/A,,Overcast,0,2013-01-04 19:35:00
12:55 PM,3.2,1.4,92,30.44,5.0,Calm,Calm,-,N/A,,Overcast,0,2013-01-04 19:55:00
1:15 PM,3.2,-0.4,85,30.43,7.0,Calm,Calm,-,N/A,,Mostly Cloudy,0,2013-01-04 20:15:00
1:35 PM,3.2,1.4,92,30.42,9.0,Calm,Calm,-,N/A,,Mostly Cloudy,0,2013-01-04 20:35:00
1:55 PM,3.2,-0.4,85,30.42,9.0,Calm,Calm,-,N/A,,Overcast,0,2013-01-04 20:55:00
2:15 PM,3.2,1.4,92,30.42,10.0,Calm,Calm,-,N/A,,Overcast,0,2013-01-04 21:15:00
2:35 PM,3.2,1.4,92,30.42,10.0,Calm,Calm,-,N/A,,Mostly Cloudy,0,2013-01-04 21:35:00
2:55 PM,5.0,-0.4,78,30.42,10.0,Calm,Calm,-,N/A,,Scattered Clouds,0,2013-01-04 21:55:00
3:15 PM,5.0,3.2,92,30.42,10.0,Calm,Calm,-,N/A,,Clear,0,2013-01-04 22:15:00
3:35 PM,6.8,-0.4,72,30.41,10.0,Calm,Calm,-,N/A,,Clear,0,2013-01-04 22:35:00
3:55 PM,5.0,1.4,85,30.42,10.0,Calm,Calm,-,N/A,,Clear,0,2013-01-04 22:55:00
4:15 PM,5.0,1.4,85,30.42,10.0,Calm,Calm,-,N/A,,Clear,0,2013-01-04 23:15:00
4:35 PM,5.0,1.4,85,30.42,9.0,Calm,Calm,-,N/A,,Clear,0,2013-01-04 23:35:00
4:55 PM,3.2,-0.4,85,30.42,10.0,ENE,3.5,-,N/A,,Clear,60,2013-01-04 23:55:00
5:15 PM,1.4,-2.2,85,30.42,10.0,NE,3.5,-,N/A,,Clear,50,2013-01-05 00:15:00
5:35 PM,-0.4,-4.0,85,30.42,10.0,NE,4.6,-,N/A,,Clear,40,2013-01-05 00:35:00
5:55 PM,-0.4,-4.0,85,30.42,10.0,NE,4.6,-,N/A,,Scattered Clouds,40,2013-01-05 00:55:00
6:15 PM,1.4,-0.4,92,30.42,10.0,Calm,Calm,-,N/A,,Mostly Cloudy,0,2013-01-05 01:15:00
6:35 PM,1.4,-2.2,85,30.42,10.0,Calm,Calm,-,N/A,,Scattered Clouds,0,2013-01-05 01:35:00
6:55 PM,1.4,-0.4,92,30.42,10.0,Calm,Calm,-,N/A,,Clear,0,2013-01-05 01:55:00
7:15 PM,-0.4,-5.8,78,30.42,10.0,Calm,Calm,-,N/A,,Clear,0,2013-01-05 02:15:00
7:35 PM,-0.4,-2.2,92,30.42,10.0,Calm,Calm,-,N/A,,Clear,0,2013-01-05 02:35:00
7:55 PM,-0.4,-5.8,78,30.43,10.0,Calm,Calm,-,N/A,,Scattered Clouds,0,2013-01-05 02:55:00
8:15 PM,-0.4,-2.2,92,30.43,10.0,Calm,Calm,-,N/A,,Scattered Clouds,0,2013-01-05 03:15:00
8:35 PM,-2.2,-7.6,78,30.43,10.0,Calm,Calm,-,N/A,,Partly Cloudy,0,2013-01-05 03:35:00
8:55 PM,-2.2,-2.2,100,30.43,10.0,Calm,Calm,-,N/A,,Clear,0,2013-01-05 03:55:00
9:15 PM,-4.0,-11.2,71,30.43,10.0,Calm,Calm,-,N/A,,Clear,0,2013-01-05 04:15:00
9:35 PM,-5.8,-5.8,100,30.43,10.0,Calm,Calm,-,N/A,,Clear,0,2013-01-05 04:35:00
9:55 PM,-5.8,-11.2,77,30.43,10.0,Calm,Calm,-,N/A,,Clear,0,2013-01-05 04:55:00
10:15 PM,-4.0,-5.8,92,30.43,10.0,Calm,Calm,-,N/A,,Clear,0,2013-01-05 05:15:00
10:35 PM,-4.0,-9.4,78,30.43,10.0,Calm,Calm,-,N/A,,Clear,0,2013-01-05 05:35:00
10:55 PM,-4.0,-5.8,92,30.42,10.0,Calm,Calm,-,N/A,,Clear,0,2013-01-05 05:55:00
11:15 PM,-7.6,-14.8,71,30.43,10.0,Calm,Calm,-,N/A,,Clear,0,2013-01-05 06:15:00
11:35 PM,-5.8,-5.8,100,30.43,10.0,Calm,Calm,-,N/A,,Clear,0,2013-01-05 06:35:00
11:55 PM,-7.6,-14.8,71,30.43,10.0,Calm,Calm,-,N/A,,Clear,0,2013-01-05 06:55:00